Weather reports worldwide

Advertisment
Preston, Moor Park, United Kingdom (99113): temperature & dewpoint: 17.11.2020 22:00:00 - 23.11.2020 22:00:00 (GMT)Preston, Moor Park, United Kingdom (99113): precipitation: 17.11.2020 22:00:00 - 23.11.2020 22:00:00 (GMT)
Date & Time tt [°C] td [°C] rr [mm]
23.11.2020 22:00:00 9,6 7,8 0,0
23.11.2020 21:00:00 9,8 7,8 0,0
23.11.2020 20:00:00 9,5 7,4 0,0
23.11.2020 19:00:00 9,0 7,3 0,0
23.11.2020 18:00:00 8,6 6,8 0,0
23.11.2020 17:00:00 8,2 6,0 0,0
23.11.2020 16:00:00 8,8 6,1 0,0
23.11.2020 15:00:00 8,6 5,6 0,0
23.11.2020 14:00:00 8,2 5,1 0,0
23.11.2020 13:00:00 7,8 4,6 0,0
23.11.2020 12:00:00 7,0 4,0 0,0
23.11.2020 11:00:00 5,7 3,7 0,0
23.11.2020 10:00:00 5,1 2,9 0,0
23.11.2020 09:00:00 4,6 2,7 0,0
23.11.2020 08:00:00 3,9 2,5 0,2
23.11.2020 07:00:00 4,0 2,8 0,0
23.11.2020 06:00:00 3,8 2,8 0,0
23.11.2020 05:00:00 3,9 3,1 0,0
23.11.2020 04:00:00 4,5 3,5 0,0
23.11.2020 03:00:00 4,6 3,7 0,0
23.11.2020 02:00:00 4,7 3,8 0,0
23.11.2020 01:00:00 4,5 3,4 0,0
23.11.2020 00:00:00 2,9 2,2 0,0
22.11.2020 23:00:00 4,0 2,5 0,0
22.11.2020 22:00:00 5,6 3,5 0,0
22.11.2020 21:00:00 6,1 3,5 0,0
22.11.2020 20:00:00 6,1 3,2 0,0
22.11.2020 19:00:00 7,1 2,6 0,0
22.11.2020 18:00:00 6,8 3,1 0,0
22.11.2020 17:00:00 7,0 3,0 0,0
22.11.2020 16:00:00 7,6 3,3 0,0
22.11.2020 15:00:00 8,4 3,5 0,0
22.11.2020 14:00:00 9,0 3,9 0,0
22.11.2020 13:00:00 9,8 3,6 0,0
22.11.2020 12:00:00 9,9 3,7 0,0
22.11.2020 11:00:00 9,5 4,4 0,0
22.11.2020 10:00:00 8,7 4,4 0,0
22.11.2020 09:00:00 7,4 3,7 0,0
22.11.2020 08:00:00 7,1 3,6 0,0
22.11.2020 07:00:00 7,2 3,3 0,0
22.11.2020 06:00:00 7,7 3,3 0,0
22.11.2020 05:00:00 7,2 3,1 0,0
22.11.2020 04:00:00 7,5 3,2 0,0
22.11.2020 03:00:00 7,8 3,7 0,0
22.11.2020 02:00:00 7,9 4,0 0,0
22.11.2020 01:00:00 8,3 4,2 0,0
22.11.2020 00:00:00 8,7 5,0 0,0
21.11.2020 23:00:00 9,4 5,7 0,0
21.11.2020 22:00:00 9,3 6,2 0,0
21.11.2020 21:00:00 9,4 7,5 0,0
21.11.2020 20:00:00 9,3 7,2 0,0
21.11.2020 19:00:00 9,4 8,0 0,0
21.11.2020 18:00:00 9,2 7,7 0,0
21.11.2020 17:00:00 9,1 8,0 0,0
21.11.2020 16:00:00 9,7 8,6 0,0
21.11.2020 15:00:00 10,2 9,1 0,0
21.11.2020 14:00:00 10,4 10,0 0,4
21.11.2020 13:00:00 10,1 9,5 0,6
21.11.2020 12:00:00 11,3 10,8 0,0
21.11.2020 11:00:00 10,7 10,3 1,6
21.11.2020 10:00:00 10,4 8,6 0,2
21.11.2020 09:00:00 11,4 7,4 0,0
21.11.2020 08:00:00 11,3 7,5 0,0
21.11.2020 07:00:00 11,4 7,4 0,0
21.11.2020 06:00:00 10,8 8,5 0,0
21.11.2020 05:00:00 10,9 8,5 0,0
21.11.2020 04:00:00 11,0 8,3 0,0
21.11.2020 03:00:00 11,1 8,9 0,0
21.11.2020 02:00:00 11,2 9,4 0,0
21.11.2020 01:00:00 11,2 9,4 0,0
21.11.2020 00:00:00 11,2 9,6 0,0
20.11.2020 23:00:00 11,0 9,8 0,0
20.11.2020 22:00:00 10,7 9,7 0,0
20.11.2020 21:00:00 10,9 9,6 0,0
20.11.2020 20:00:00 11,2 10,1 0,0
20.11.2020 19:00:00 11,3 10,6 0,0
20.11.2020 18:00:00 11,2 10,3 0,0
20.11.2020 17:00:00 11,0 10,5 0,0
20.11.2020 16:00:00 11,0 10,8 0,2
20.11.2020 15:00:00 9,8 9,6 0,8
20.11.2020 14:00:00 9,2 8,8 0,4
20.11.2020 13:00:00 8,7 8,2 0,2
20.11.2020 12:00:00 8,2 7,2 0,0
20.11.2020 11:00:00 7,7 6,6 0,2
20.11.2020 10:00:00 7,0 5,9 0,0
20.11.2020 09:00:00 6,2 5,4 0,2
20.11.2020 08:00:00 6,2 4,2 0,0
20.11.2020 07:00:00 5,9 3,7 0,0
20.11.2020 06:00:00 6,0 3,3 0,0
20.11.2020 05:00:00 5,7 2,9 0,0
20.11.2020 04:00:00 5,1 2,5 0,0
20.11.2020 03:00:00 5,3 2,6 0,0
20.11.2020 02:00:00 5,0 3,0 0,0
20.11.2020 01:00:00 4,8 3,0 0,0
20.11.2020 00:00:00 4,8 3,1 0,0
19.11.2020 23:00:00 3,4 2,4 0,0
19.11.2020 22:00:00 3,6 2,3 0,0
19.11.2020 21:00:00 3,9 2,0 0,4
19.11.2020 20:00:00 4,5 2,2 0,0
19.11.2020 19:00:00 4,1 1,6 0,0
19.11.2020 18:00:00 4,1 -0,2 0,0
19.11.2020 17:00:00 5,6 0,1 0,0
19.11.2020 16:00:00 5,9 -0,3 0,0
19.11.2020 15:00:00 7,0 -0,1 0,0
19.11.2020 14:00:00 7,8 -2,5 0,0
19.11.2020 13:00:00 7,7 0,0 0,0
19.11.2020 12:00:00 8,3 0,9 0,0
19.11.2020 11:00:00 7,8 3,0 0,0
19.11.2020 10:00:00 6,6 3,7 0,0
19.11.2020 09:00:00 5,6 4,0 0,0
19.11.2020 08:00:00 5,5 3,4 0,0
19.11.2020 07:00:00 6,7 5,1 1,4
19.11.2020 06:00:00 8,1 7,2 1,0
19.11.2020 05:00:00 7,6 6,6 0,2
19.11.2020 04:00:00 8,1 6,8 1,8
19.11.2020 03:00:00 9,4 6,3 0,0
19.11.2020 02:00:00 8,8 6,0 0,0
19.11.2020 01:00:00 9,7 6,5 0,0
19.11.2020 00:00:00 9,1 8,0 0,2
18.11.2020 23:00:00 9,2 6,3 0,0
18.11.2020 22:00:00 9,8 5,1 0,0
18.11.2020 21:00:00 9,4 4,8 0,0
18.11.2020 20:00:00 9,3 4,6 0,0
18.11.2020 19:00:00 9,6 5,1 0,0
18.11.2020 18:00:00 9,6 4,5 0,0
18.11.2020 17:00:00 9,2 4,1 0,0
18.11.2020 16:00:00 9,5 4,9 0,0
18.11.2020 15:00:00 9,7 6,7 0,2
18.11.2020 14:00:00 - - 1,0
18.11.2020 13:00:00 - - 1,4
18.11.2020 12:00:00 - - 0,2
18.11.2020 11:00:00 - - 0,0
18.11.2020 10:00:00 13,2 10,6 0,0
18.11.2020 09:00:00 12,8 10,1 0,0
18.11.2020 08:00:00 12,7 9,7 0,0
18.11.2020 07:00:00 12,6 9,4 0,0
18.11.2020 06:00:00 13,1 9,6 0,0
18.11.2020 05:00:00 12,8 9,4 0,0
18.11.2020 04:00:00 12,6 9,1 0,0
18.11.2020 03:00:00 12,6 9,0 0,0
18.11.2020 02:00:00 12,4 8,9 0,0
18.11.2020 01:00:00 12,5 8,7 0,0
18.11.2020 00:00:00 12,7 8,4 0,0
17.11.2020 23:00:00 12,9 8,8 0,0
17.11.2020 22:00:00 13,6 10,1 0,0

tt = temperature
td = dewpoint
rr = precipitation

Next stations